QPF
0.00 0.00 0.00 0.00 0.00 0.00 0.00 0.00 0.00 0.00 0.00 0.00 0.00 0.00 0.00 0.00 0.00 0.00 0.00 0.00 0.00 0.00 0.00 0.00 0.00 0.00 0.00 0.00 0.00 0.00 0.00 0.00 0.00 0.00 0.00 0.00 0.00 0.00 0.00 0.00 0.00 0.00 0.00 0.00
0.00 0.00 0.00 0.00 0.00 0.00 0.00 0.00 0.00 0.00 0.00 0.00 0.00 0.00 0.00 0.00 0.00 0.00 0.00 0.00 0.00 0.00 0.00 0.00 0.00 0.00 0.00 0.00 0.00 0.00 0.00 0.00 0.00 0.00 0.00 0.00 0.00 0.00 0.00 0.00 0.00 0.00 0.00 0.00
0.00 0.00 0.00 0.00 0.00 0.00 0.00 0.00 0.00 0.00 0.00 0.00 0.00 0.00 0.00 0.00 0.00 0.00 0.00 0.00 0.00 0.00 0.00 0.00 0.00 0.00 0.00 0.00 0.00 0.00 0.00 0.00 0.00 0.00 0.00 0.00 0.00 0.00 0.00 0.00 0.00 0.00 0.00 0.00
0.00 0.00 0.00 0.00 0.00 0.00 0.00 0.00 0.00 0.00 0.00 0.00 0.00 0.00 0.00 0.00 0.00 0.00 0.00 0.00 0.00 0.00 0.00 0.00 0.00 0.00 0.00 0.00 0.00 0.00 0.00 0.00 0.00 0.00 0.00 0.00 0.00 0.00 0.00 0.00 0.00 0.00 0.00 0.00
0.00 0.00 0.00 0.00 0.00 0.00 0.00 0.00 0.00 0.00 0.00 0.00 0.00 0.00 0.00 0.00 0.00 0.00 0.00 0.00 0.00 0.00 0.00 0.04 0.09 0.03 0.00 0.00 0.00 0.00 0.00 0.00 0.00 0.00 0.00 0.00 0.00 0.00 0.00 0.00 0.00 0.00 0.00 0.00
0.00 0.00 0.00 0.00 0.00 0.00 0.00 0.00 0.00 0.00 0.00 0.00 0.00 0.00 0.00 0.00 0.00 0.00 0.00 0.00 0.00 0.00 0.04 0.11 0.12 0.02 0.01 0.03 0.01 0.00 0.00 0.00 0.00 0.00 0.00 0.00 0.00 0.00 0.00 0.01 0.00 0.00 0.00 0.00
0.00 0.00 0.00 0.00 0.00 0.00 0.00 0.00 0.00 0.00 0.00 0.00 0.00 0.00 0.00 0.00 0.00 0.00 0.00 0.00 0.00 0.01 0.02 0.07 0.09 0.03 0.04 0.07 0.03 0.00 0.00 0.00 0.00 0.00 0.00 0.00 0.00 0.00 0.00 0.00 0.00 0.00 0.00 0.00
0.00 0.00 0.00 0.00 0.00 0.00 0.00 0.00 0.00 0.00 0.00 0.00 0.00 0.00 0.00 0.00 0.00 0.00 0.00 0.00 0.00 0.01 0.02 0.04 0.11 0.03 0.04 0.06 0.03 0.00 0.00 0.00 0.00 0.00 0.00 0.00 0.00 0.00 0.00 0.00 0.00 0.00 0.00 0.00
0.00 0.00 0.00 0.00 0.00 0.00 0.00 0.00 0.00 0.00 0.00 0.00 0.00 0.00 0.00 0.00 0.00 0.00 0.00 0.01 0.00 0.02 0.02 0.06 0.16 0.03 0.03 0.05 0.05 0.03 0.00 0.00 0.00 0.00 0.00 0.00 0.00 0.00 0.00 0.00 0.00 0.00 0.00 0.00
0.00 0.00 0.00 0.00 0.00 0.00 0.00 0.00 0.00 0.00 0.00 0.00 0.00 0.00 0.00 0.00 0.00 0.00 0.01 0.01 0.01 0.01 0.01 0.08 0.20 0.09 0.03 0.04 0.06 0.05 0.02 0.00 0.00 0.00 0.01 0.00 0.00 0.00 0.01 0.01 0.01 0.01 0.00 0.00
0.00 0.00 0.00 0.00 0.00 0.00 0.00 0.00 0.00 0.00 0.00 0.00 0.00 0.00 0.00 0.00 0.00 0.02 0.02 0.01 0.03 0.02 0.04 0.08 0.24 0.24 0.06 0.03 0.05 0.06 0.05 0.02 0.01 0.02 0.03 0.08 0.07 0.06 0.04 0.03 0.02 0.02 0.01 0.01
0.00 0.00 0.00 0.00 0.00 0.00 0.00 0.00 0.00 0.00 0.00 0.00 0.00 0.00 0.00 0.00 0.00 0.01 0.00 0.01 0.03 0.02 0.06 0.09 0.14 0.30 0.14 0.07 0.06 0.06 0.03 0.03 0.03 0.03 0.05 0.06 0.05 0.04 0.07 0.08 0.09 0.10 0.08 0.04
0.00 0.00 0.00 0.00 0.00 0.00 0.00 0.00 0.00 0.00 0.00 0.00 0.01 0.00 0.00 0.00 0.00 0.00 0.00 0.00 0.02 0.03 0.04 0.09 0.20 0.54 0.32 0.16 0.10 0.06 0.01 0.01 0.01 0.02 0.06 0.11 0.12 0.11 0.11 0.08 0.08 0.08 0.09 0.07
0.00 0.01 0.00 0.00 0.00 0.00 0.00 0.00 0.00 0.00 0.00 0.00 0.00 0.00 0.00 0.00 0.00 0.00 0.00 0.01 0.02 0.02 0.03 0.07 0.25 0.63 0.46 0.24 0.11 0.06 0.01 0.00 0.00 0.00 0.05 0.11 0.12 0.15 0.12 0.10 0.05 0.05 0.05 0.02
0.00 0.01 0.00 0.00 0.00 0.00 0.00 0.00 0.00 0.00 0.00 0.00 0.00 0.00 0.00 0.00 0.00 0.01 0.00 0.00 0.00 0.00 0.01 0.03 0.13 0.30 0.49 0.28 0.17 0.06 0.02 0.01 0.03 0.04 0.21 0.61 0.23 0.20 0.19 0.19 0.14 0.03 0.02 0.03
0.00 0.00 0.00 0.00 0.00 0.00 0.00 0.00 0.00 0.00 0.00 0.00 0.00 0.00 0.00 0.00 0.00 0.00 0.00 0.00 0.00 0.00 0.00 0.00 0.09 0.16 0.37 0.20 0.11 0.13 0.12 0.11 0.19 0.24 0.20 0.35 0.30 0.18 0.18 0.19 0.22 0.12 0.02 0.02
0.00 0.00 0.00 0.00 0.00 0.00 0.00 0.00 0.00 0.00 0.00 0.00 0.00 0.00 0.00 0.00 0.00 0.00 0.01 0.00 0.00 0.00 0.00 0.00 0.02 0.07 0.13 0.15 0.09 0.04 0.04 0.04 0.08 0.24 0.19 0.10 0.26 0.30 0.15 0.16 0.15 0.15 0.12 0.05
0.00 0.00 0.00 0.00 0.00 0.00 0.00 0.00 0.00 0.00 0.00 0.00 0.00 0.00 0.00 0.00 0.00 0.00 0.00 0.00 0.00 0.00 0.00 0.00 0.00 0.01 0.01 0.04 0.07 0.05 0.00 0.00 0.00 0.01 0.01 0.05 0.03 0.05 0.04 0.04 0.05 0.04 0.05 0.05
0.00 0.00 0.00 0.00 0.00 0.00 0.00 0.00 0.00 0.00 0.00 0.00 0.00 0.00 0.00 0.00 0.00 0.00 0.00 0.00 0.00 0.00 0.00 0.00 0.00 0.00 0.00 0.00 0.01 0.02 0.01 0.00 0.00 0.00 0.00 0.00 0.00 0.01 0.02 0.01 0.03 0.04 0.02 0.04
0.00 0.00 0.00 0.00 0.00 0.00 0.00 0.00 0.00 0.00 0.00 0.00 0.00 0.00 0.00 0.00 0.00 0.00 0.00 0.00 0.00 0.00 0.00 0.00 0.00 0.00 0.00 0.00 0.00 0.00 0.00 0.00 0.00 0.00 0.00 0.00 0.00 0.00 0.00 0.00 0.00 0.02 0.01 0.05
0.00 0.00 0.00 0.00 0.00 0.00 0.00 0.00 0.00 0.00 0.00 0.00 0.00 0.00 0.00 0.00 0.01 0.00 0.00 0.00 0.00 0.00 0.00 0.00 0.00 0.00 0.00 0.00 0.00 0.00 0.00 0.00 0.00 0.00 0.00 0.00 0.00 0.00 0.00 0.00 0.00 0.00 0.00 0.00
0.00 0.00 0.00 0.00 0.00 0.00 0.00 0.00 0.00 0.00 0.00 0.00 0.00 0.00 0.01 0.00 0.00 0.00 0.00 0.00 0.00 0.00 0.00 0.00 0.00 0.00 0.00 0.00 0.00 0.00 0.00 0.00 0.00 0.00 0.00 0.00 0.00 0.00 0.00 0.00 0.00 0.00 0.00 0.00
0.00 0.00 0.00 0.00 0.00 0.00 0.00 0.00 0.00 0.00 0.00 0.00 0.00 0.00 0.00 0.00 0.00 0.00 0.00 0.00 0.00 0.00 0.00 0.00 0.00 0.00 0.00 0.00 0.00 0.00 0.00 0.00 0.00 0.00 0.00 0.00 0.00 0.00 0.00 0.00 0.00 0.00 0.00 0.00
0.00 0.00 0.00 0.00 0.00 0.00 0.00 0.00 0.00 0.00 0.00 0.00 0.00 0.00 0.00 0.00 0.00 0.00 0.00 0.00 0.00 0.00 0.00 0.00 0.00 0.00 0.00 0.00 0.00 0.00 0.00 0.00 0.00 0.00 0.00 0.00 0.00 0.00 0.00 0.00 0.00 0.00 0.00 0.00
0.00 0.00 0.00 0.00 0.00 0.00 0.00 0.00 0.00 0.00 0.00 0.00 0.00 0.00 0.00 0.00 0.00 0.00 0.00 0.00 0.00 0.00 0.00 0.01 0.00 0.00 0.00 0.00 0.00 0.00 0.00 0.00 0.00 0.00 0.00 0.00 0.00 0.00 0.00 0.00 0.00 0.00 0.01 0.01
0.00 0.00 0.00 0.00 0.00 0.00 0.00 0.00 0.00 0.00 0.00 0.00 0.00 0.00 0.00 0.00 0.00 0.00 0.00 0.00 0.00 0.00 0.00 0.00 0.01 0.01 0.00 0.00 0.00 0.00 0.00 0.00 0.00 0.00 0.00 0.00 0.00 0.00 0.00 0.00 0.00 0.00 0.00 0.00
MSLP
1014.41 1013.78 1013.30 1013.95 1014.48 1014.72 1014.62 1014.20 1013.38 1013.11 1013.73 1013.49 1011.44 1011.12 1010.88 1010.03 1009.97 1009.87 1009.85 1009.73 1009.58 1009.51 1009.21 1009.12 1008.98 1008.91 1008.54 1006.79 1006.04 1005.45 1005.36 1005.32 1005.47 1004.38 1003.91 1004.31 1004.55 1005.50 1006.15 1006.29 1007.12 1008.12 1009.12 1009.47
1014.49 1013.76 1014.99 1015.45 1015.64 1015.39 1015.17 1014.68 1013.81 1013.94 1013.96 1014.04 1011.83 1010.56 1010.03 1009.84 1009.93 1009.90 1009.82 1009.89 1009.87 1009.52 1008.97 1008.83 1009.14 1009.06 1008.13 1006.77 1005.16 1004.13 1004.07 1003.67 1003.79 1003.77 1002.82 1002.96 1003.29 1003.76 1004.71 1005.52 1006.04 1006.84 1007.83 1008.64
1014.02 1014.77 1015.81 1015.92 1016.03 1015.83 1015.54 1015.34 1015.05 1015.08 1014.42 1013.18 1012.14 1009.21 1009.40 1009.69 1009.65 1009.98 1010.52 1010.80 1010.59 1010.29 1009.73 1009.66 1009.52 1009.38 1008.28 1006.68 1004.54 1003.45 1002.37 1002.48 1002.32 1002.36 1001.90 1002.19 1003.03 1003.36 1003.75 1003.96 1004.98 1005.47 1007.03 1007.61
1014.86 1015.97 1016.11 1016.32 1016.37 1016.68 1015.96 1016.52 1016.22 1015.39 1014.76 1012.86 1013.12 1009.92 1009.19 1009.28 1009.69 1010.53 1011.07 1010.92 1011.04 1011.42 1011.71 1011.77 1011.12 1009.73 1009.21 1007.46 1005.52 1002.87 1001.31 1001.28 1001.17 1001.65 1001.07 1000.93 1001.33 1001.49 1002.03 1002.94 1003.75 1004.30 1005.67 1006.86
1014.96 1015.83 1016.01 1016.20 1016.85 1017.28 1016.67 1016.97 1016.38 1015.67 1014.77 1013.94 1012.33 1011.50 1008.58 1009.32 1010.32 1010.82 1011.16 1011.37 1011.97 1012.92 1013.01 1012.58 1011.66 1010.64 1009.17 1007.61 1005.93 1003.33 1000.20 1000.16 1000.16 1000.25 1000.67 1000.20 1000.34 1001.01 1001.13 1001.16 1003.20 1003.44 1004.64 1005.92
1015.47 1016.53 1016.55 1016.66 1017.16 1017.44 1017.52 1016.67 1015.76 1015.44 1014.59 1013.13 1012.10 1012.07 1009.72 1010.58 1011.68 1011.82 1012.06 1012.37 1013.65 1013.28 1013.83 1013.33 1012.65 1011.41 1009.70 1007.97 1005.87 1003.23 999.47 998.95 999.29 999.35 999.54 999.30 999.40 999.93 1000.18 1001.98 1001.97 1002.00 1003.37 1004.75
1015.73 1016.25 1017.05 1017.39 1016.98 1017.43 1017.12 1015.97 1014.40 1013.99 1013.31 1012.10 1012.55 1012.36 1010.88 1012.16 1013.09 1013.72 1013.87 1014.67 1015.37 1015.15 1014.42 1013.55 1012.89 1011.82 1010.21 1008.59 1006.34 1003.72 999.35 998.12 998.39 998.36 998.47 998.34 998.48 999.25 999.59 999.66 999.79 1001.30 1002.52 1004.02
1014.48 1015.92 1016.57 1017.31 1017.40 1017.56 1017.45 1017.01 1015.94 1015.14 1013.68 1012.76 1012.66 1011.65 1010.73 1012.47 1013.82 1015.13 1016.33 1016.81 1016.40 1015.78 1015.02 1014.64 1014.08 1012.83 1011.09 1009.08 1006.83 1004.03 1000.97 997.83 997.52 997.34 997.56 997.60 997.81 997.93 997.97 998.02 998.22 1000.43 1001.75 1002.81
1014.11 1015.48 1016.95 1017.39 1017.75 1018.10 1017.90 1017.49 1017.99 1017.24 1015.70 1014.29 1011.95 1011.34 1010.71 1012.80 1014.19 1015.58 1016.93 1017.13 1016.76 1016.10 1015.97 1015.21 1014.26 1013.25 1011.58 1009.82 1007.76 1005.08 1002.12 999.38 996.80 996.93 997.25 997.12 997.31 997.41 997.32 997.73 998.63 999.69 1001.22 1002.13
1014.79 1015.63 1016.85 1017.87 1017.95 1018.41 1018.06 1018.52 1018.24 1017.52 1016.21 1014.18 1011.97 1011.57 1011.54 1013.38 1014.43 1015.91 1016.79 1016.85 1016.79 1016.51 1016.49 1015.84 1014.68 1013.45 1011.80 1009.95 1007.49 1004.82 1003.09 1001.82 999.92 997.66 996.83 996.87 997.04 997.35 997.78 998.37 998.71 999.41 1000.24 1001.07
1015.15 1015.30 1017.28 1018.11 1017.73 1017.30 1018.35 1018.18 1018.33 1018.18 1017.23 1015.52 1013.55 1012.25 1013.87 1014.91 1015.45 1016.31 1017.17 1017.33 1017.25 1016.85 1016.85 1016.54 1015.45 1014.24 1012.96 1011.03 1009.12 1007.16 1005.43 1003.79 1001.75 1000.57 999.51 998.37 997.70 997.65 997.98 998.31 998.73 999.23 1000.12 1000.90
1015.78 1015.91 1016.61 1017.29 1017.71 1018.03 1017.78 1017.95 1018.27 1017.78 1017.39 1016.44 1015.38 1013.74 1013.95 1015.15 1016.57 1017.55 1017.64 1017.95 1017.74 1017.38 1017.39 1017.27 1016.53 1015.42 1013.89 1011.97 1010.40 1008.65 1006.81 1005.15 1003.88 1002.97 1001.47 1000.52 1000.02 999.77 999.42 999.03 998.89 999.27 999.62 1000.56
1015.70 1016.01 1016.88 1017.58 1018.01 1018.18 1017.70 1017.79 1018.16 1018.56 1018.41 1016.88 1015.55 1013.32 1012.91 1015.02 1017.01 1018.15 1018.22 1018.13 1017.86 1017.44 1017.74 1017.58 1017.10 1016.11 1014.75 1013.63 1012.47 1010.71 1008.98 1007.36 1005.97 1004.70 1003.71 1003.05 1002.19 1001.53 1001.05 1000.69 1000.48 1000.32 1000.61 1001.24
1015.85 1016.40 1016.31 1016.04 1015.98 1016.33 1017.27 1017.49 1018.00 1018.76 1018.14 1016.51 1015.19 1014.42 1014.93 1016.55 1017.98 1018.42 1018.51 1018.49 1018.23 1017.89 1018.02 1018.24 1017.71 1016.91 1015.57 1015.27 1014.05 1012.25 1010.60 1009.29 1008.12 1006.92 1005.79 1005.23 1004.46 1003.48 1002.99 1002.40 1002.04 1001.57 1001.03 1001.28
1016.25 1016.30 1016.93 1016.79 1016.84 1017.01 1017.19 1017.46 1017.96 1018.54 1018.31 1017.88 1016.32 1016.15 1016.62 1018.35 1019.09 1019.13 1019.22 1018.92 1018.48 1018.23 1018.31 1018.66 1018.51 1017.72 1016.39 1015.63 1014.84 1013.77 1012.03 1010.59 1009.53 1008.36 1007.49 1007.07 1005.96 1005.44 1004.97 1004.31 1003.47 1002.85 1002.61 1001.91
1016.49 1016.46 1017.00 1016.90 1016.88 1017.15 1017.17 1017.42 1017.93 1018.34 1018.31 1017.90 1017.61 1017.20 1018.61 1019.35 1019.75 1019.63 1019.83 1019.29 1019.04 1018.63 1018.74 1018.74 1018.60 1018.13 1017.10 1016.03 1014.93 1013.35 1012.75 1011.86 1011.19 1009.82 1009.09 1008.47 1007.07 1005.89 1006.54 1005.14 1004.34 1003.46 1003.88 1003.09
1016.27 1016.60 1016.76 1016.33 1016.82 1017.33 1017.19 1016.61 1017.54 1018.07 1018.31 1018.76 1018.93 1019.63 1020.16 1020.20 1020.20 1020.18 1020.42 1020.04 1019.65 1019.12 1018.80 1018.64 1018.45 1017.91 1016.99 1015.81 1015.16 1014.48 1013.34 1011.93 1010.54 1011.18 1011.09 1009.31 1006.60 1007.41 1006.95 1006.64 1005.79 1004.65 1004.50 1004.38
1016.14 1016.60 1016.54 1016.47 1017.23 1016.99 1016.26 1016.21 1016.83 1017.53 1018.39 1018.97 1019.73 1020.60 1021.02 1020.93 1020.87 1020.81 1020.81 1020.71 1020.10 1019.57 1019.10 1018.72 1018.54 1018.34 1017.78 1017.06 1016.03 1015.48 1014.61 1013.55 1013.59 1012.48 1011.35 1010.17 1010.41 1009.65 1008.56 1008.18 1007.57 1006.75 1005.99 1005.50
1016.31 1016.38 1016.40 1016.50 1016.14 1016.24 1016.86 1017.06 1017.22 1017.25 1017.82 1019.22 1020.29 1020.91 1021.09 1020.98 1020.29 1020.80 1021.06 1021.16 1020.74 1020.29 1019.87 1019.59 1019.33 1018.79 1018.16 1017.30 1016.27 1015.53 1015.11 1014.25 1013.00 1012.43 1011.74 1011.23 1010.71 1010.47 1009.84 1009.41 1008.55 1007.92 1007.40 1006.86
1016.79 1016.69 1016.44 1016.56 1016.20 1015.66 1015.89 1017.01 1017.68 1017.68 1017.93 1019.30 1020.32 1020.82 1021.10 1021.05 1020.37 1020.66 1021.60 1021.37 1021.05 1020.79 1020.44 1020.02 1019.53 1019.14 1018.76 1018.17 1017.17 1016.29 1015.93 1015.49 1015.02 1014.28 1013.35 1012.58 1011.99 1011.40 1010.83 1010.46 1009.94 1009.07 1008.63 1008.36
1016.44 1016.56 1016.22 1016.20 1016.12 1016.05 1016.61 1017.35 1017.83 1017.79 1018.70 1019.47 1020.48 1020.82 1021.06 1021.38 1021.66 1021.83 1021.89 1021.59 1021.49 1021.17 1020.83 1020.51 1019.96 1019.45 1019.24 1018.78 1018.18 1017.25 1016.47 1016.01 1015.80 1015.22 1014.49 1013.68 1013.11 1012.60 1012.18 1011.66 1011.06 1010.36 1009.70 1009.09
1015.17 1015.58 1016.09 1016.23 1016.39 1016.23 1017.11 1017.71 1017.73 1018.08 1018.72 1019.55 1020.23 1020.78 1021.16 1021.50 1021.80 1021.93 1021.86 1021.79 1021.70 1021.51 1021.28 1021.00 1020.44 1020.12 1019.90 1019.42 1018.80 1017.99 1017.74 1017.15 1016.37 1015.83 1015.28 1014.73 1014.32 1013.81 1013.09 1012.58 1012.04 1011.48 1010.73 1010.30
1014.98 1014.80 1015.04 1015.74 1015.91 1016.54 1017.15 1017.42 1018.15 1018.50 1019.06 1019.77 1020.34 1020.80 1021.42 1021.71 1022.09 1022.07 1022.02 1022.12 1022.25 1022.09 1021.94 1021.52 1020.98 1020.64 1020.49 1020.10 1019.58 1018.93 1018.55 1017.84 1017.11 1016.23 1015.80 1015.45 1014.91 1014.51 1014.28 1013.95 1013.21 1012.29 1011.71 1011.73
1015.24 1015.62 1015.56 1016.15 1016.81 1016.84 1017.49 1018.12 1018.58 1019.15 1019.60 1020.20 1020.71 1021.12 1021.52 1021.94 1022.33 1022.37 1022.33 1022.38 1022.59 1022.64 1022.62 1022.41 1021.86 1021.36 1020.97 1020.62 1020.13 1019.53 1018.75 1017.96 1017.13 1016.60 1016.19 1015.84 1015.33 1014.95 1014.89 1014.49 1014.34 1014.04 1013.34 1012.99
1015.44 1015.88 1016.31 1016.30 1016.77 1017.46 1017.87 1018.37 1018.99 1019.68 1020.28 1020.78 1021.52 1021.56 1021.82 1022.26 1022.64 1022.77 1022.78 1023.05 1023.24 1023.20 1023.26 1023.23 1022.78 1022.16 1021.60 1021.15 1020.72 1020.25 1019.61 1018.46 1017.65 1016.96 1016.58 1016.01 1015.73 1015.54 1015.25 1015.53 1015.50 1015.14 1015.49 1015.11
1015.58 1016.26 1016.56 1016.70 1017.10 1017.50 1017.91 1018.72 1019.63 1020.19 1020.89 1021.57 1021.90 1022.11 1022.39 1022.86 1023.10 1023.19 1023.40 1023.83 1023.94 1023.92 1023.80 1023.69 1023.53 1023.13 1022.64 1022.02 1021.44 1020.82 1020.25 1019.29 1018.48 1017.59 1017.29 1017.13 1016.55 1016.14 1015.96 1015.76 1015.81 1016.41 1016.43 1016.06
Thickness
5603 5607 5610 5605 5598 5594 5591 5592 5599 5610 5603 5597 5619 5614 5608 5620 5617 5614 5614 5614 5614 5611 5612 5610 5608 5603 5605 5620 5626 5638 5639 5644 5648 5665 5675 5679 5684 5684 5687 5695 5692 5686 5681 5681
5594 5600 5589 5585 5582 5583 5584 5586 5597 5593 5594 5584 5604 5608 5611 5610 5607 5606 5604 5598 5594 5594 5597 5591 5578 5570 5575 5584 5599 5610 5617 5628 5632 5641 5663 5674 5684 5689 5689 5689 5691 5688 5685 5681
5592 5587 5577 5575 5572 5574 5580 5574 5575 5570 5580 5592 5592 5620 5607 5602 5599 5595 5587 5580 5576 5570 5564 5556 5548 5541 5545 5553 5573 5584 5595 5602 5611 5623 5645 5657 5664 5672 5678 5687 5687 5691 5684 5682
5579 5569 5566 5565 5564 5561 5568 5559 5557 5562 5564 5581 5574 5596 5599 5598 5588 5577 5569 5568 5558 5543 5530 5517 5518 5526 5521 5533 5544 5568 5580 5584 5591 5601 5623 5641 5654 5664 5675 5682 5688 5691 5685 5678
5572 5561 5560 5560 5553 5548 5556 5550 5551 5554 5557 5559 5574 5571 5600 5591 5572 5567 5562 5553 5539 5515 5504 5501 5502 5503 5508 5515 5522 5539 5567 5568 5575 5588 5605 5629 5646 5655 5654 5679 5677 5685 5682 5678
5559 5552 5554 5553 5546 5542 5541 5548 5554 5551 5555 5563 5570 5557 5579 5563 5549 5549 5547 5534 5510 5508 5493 5486 5480 5478 5486 5490 5497 5512 5543 5549 5559 5578 5602 5625 5643 5655 5660 5645 5673 5684 5681 5677
5547 5545 5540 5538 5542 5538 5542 5552 5569 5567 5566 5568 5558 5545 5559 5542 5530 5521 5517 5500 5482 5483 5481 5476 5468 5462 5467 5465 5471 5485 5521 5535 5550 5576 5603 5626 5644 5652 5661 5672 5681 5677 5676 5672
5553 5539 5536 5532 5530 5528 5527 5533 5544 5534 5555 5556 5553 5542 5554 5539 5521 5502 5480 5467 5473 5473 5471 5462 5450 5447 5450 5453 5457 5474 5498 5537 5559 5587 5611 5630 5645 5655 5667 5675 5683 5673 5673 5674
5548 5534 5526 5523 5521 5520 5519 5524 5518 5506 5527 5526 5554 5554 5559 5532 5512 5495 5469 5466 5467 5467 5457 5453 5445 5440 5447 5447 5453 5472 5499 5537 5577 5600 5615 5631 5643 5653 5666 5672 5673 5673 5671 5670
5532 5523 5521 5511 5514 5509 5512 5509 5509 5514 5513 5523 5551 5544 5542 5518 5506 5486 5468 5467 5466 5460 5449 5443 5441 5441 5449 5456 5469 5488 5506 5528 5562 5596 5618 5631 5641 5648 5654 5658 5663 5665 5669 5669
5524 5528 5508 5501 5505 5513 5501 5503 5502 5501 5506 5513 5522 5533 5512 5495 5490 5475 5462 5459 5458 5454 5443 5435 5434 5437 5445 5456 5468 5485 5504 5525 5554 5573 5595 5615 5632 5643 5649 5653 5656 5659 5660 5660
5508 5511 5507 5505 5499 5499 5504 5501 5497 5499 5498 5502 5500 5507 5510 5492 5475 5459 5457 5450 5449 5447 5439 5428 5425 5427 5442 5454 5467 5483 5503 5522 5541 5555 5576 5593 5606 5615 5625 5639 5646 5649 5650 5650
5502 5504 5492 5490 5490 5489 5496 5498 5494 5486 5479 5488 5491 5514 5521 5493 5470 5450 5448 5447 5445 5445 5436 5427 5419 5422 5432 5443 5455 5472 5490 5509 5526 5543 5555 5566 5583 5595 5604 5614 5623 5629 5632 5632
5493 5485 5490 5509 5506 5504 5487 5491 5489 5471 5475 5497 5503 5502 5495 5473 5451 5446 5446 5443 5441 5439 5433 5418 5414 5416 5421 5428 5441 5460 5478 5492 5506 5522 5536 5545 5556 5568 5580 5590 5597 5608 5618 5621
5484 5477 5472 5485 5487 5487 5487 5484 5480 5459 5467 5458 5490 5483 5478 5446 5435 5437 5437 5436 5437 5435 5428 5415 5407 5409 5418 5421 5430 5445 5461 5476 5488 5503 5516 5520 5536 5544 5551 5559 5574 5586 5595 5609
5468 5473 5470 5470 5479 5479 5478 5477 5467 5462 5468 5477 5478 5477 5448 5437 5431 5431 5424 5429 5427 5429 5422 5416 5409 5406 5410 5417 5427 5443 5448 5461 5470 5483 5492 5502 5521 5531 5527 5546 5553 5572 5575 5590
5461 5464 5462 5477 5474 5467 5461 5469 5461 5450 5457 5449 5440 5430 5419 5422 5421 5420 5413 5417 5416 5421 5420 5416 5412 5412 5414 5422 5429 5431 5444 5456 5471 5464 5464 5487 5516 5511 5520 5526 5536 5551 5560 5570
5454 5457 5461 5467 5457 5450 5471 5477 5473 5462 5443 5442 5429 5415 5406 5411 5411 5409 5410 5406 5409 5413 5416 5415 5414 5411 5412 5414 5421 5424 5432 5441 5442 5451 5466 5478 5483 5489 5500 5504 5514 5526 5542 5547
5451 5454 5451 5454 5470 5470 5451 5453 5456 5456 5454 5432 5413 5407 5406 5408 5416 5405 5402 5398 5401 5402 5405 5405 5404 5408 5411 5415 5422 5425 5427 5433 5444 5450 5459 5468 5476 5477 5485 5491 5503 5513 5520 5531
5434 5441 5449 5449 5454 5460 5467 5448 5439 5443 5448 5425 5410 5404 5399 5401 5414 5413 5388 5391 5393 5394 5394 5397 5400 5403 5405 5407 5414 5420 5419 5422 5424 5433 5444 5454 5462 5471 5478 5483 5490 5502 5510 5515
5425 5429 5441 5447 5451 5457 5448 5436 5431 5441 5434 5414 5399 5397 5394 5387 5385 5384 5382 5384 5383 5385 5385 5387 5392 5397 5398 5400 5403 5410 5415 5417 5418 5424 5433 5443 5450 5457 5464 5471 5478 5487 5496 5505
5434 5434 5428 5440 5439 5442 5432 5424 5431 5425 5414 5404 5396 5390 5386 5381 5376 5375 5377 5376 5375 5376 5376 5377 5382 5385 5387 5391 5396 5401 5399 5404 5413 5417 5424 5431 5437 5444 5453 5460 5466 5473 5482 5489
5432 5447 5448 5446 5448 5432 5426 5423 5413 5409 5402 5392 5386 5382 5374 5369 5364 5367 5369 5366 5364 5365 5365 5368 5372 5375 5376 5380 5386 5390 5392 5396 5402 5412 5417 5422 5429 5435 5438 5442 5452 5463 5471 5472
5425 5427 5436 5430 5418 5422 5413 5405 5400 5393 5386 5380 5374 5369 5365 5359 5354 5355 5357 5357 5354 5353 5353 5355 5359 5363 5366 5370 5376 5381 5388 5394 5401 5406 5410 5415 5421 5427 5428 5434 5438 5442 5451 5458
5422 5421 5414 5423 5417 5406 5401 5396 5388 5378 5370 5365 5354 5355 5351 5345 5341 5343 5344 5342 5341 5342 5342 5342 5345 5350 5356 5361 5365 5370 5375 5386 5393 5400 5404 5411 5414 5418 5423 5422 5425 5430 5428 5434
5417 5405 5414 5414 5406 5402 5398 5385 5372 5365 5357 5348 5343 5339 5336 5330 5328 5331 5331 5327 5328 5329 5331 5334 5335 5338 5342 5347 5353 5359 5365 5374 5382 5390 5394 5396 5404 5410 5412 5417 5418 5413 5415 5420